{"data":{"norad_id":69397,"intl_designator":"2026-124R","name":"QIANFAN-180","alt_names":[],"object_type":"PAYLOAD","status":"ACTIVE","operator":null,"country":"PRC","launch_date":"2026-06-04","launch_site_code":"TAISC","launch_vehicle":null,"mission":null,"orbit_class":"UNKNOWN","rcs_meters":null,"size_class":null,"mass_kg":null,"dimensions":null,"purposes":[],"wikipedia_slug":null,"has_3d_model":false,"image_url":null,"decayed_at":null,"tle_current":{"epoch":"2026-09-20T03:40:08.125248Z","epoch_age_seconds":64710,"freshness":"FRESH","line1":"1 69397U 26124R   26263.15287182  .00000088  00000+0  11696-3 0  9993","line2":"2 69397  89.0050 351.9909 0001805  97.4642 262.6715 13.51022227 14896","mean_motion":13.51022227,"eccentricity":0.0001805,"inclination_deg":89.005,"raan_deg":351.9909,"arg_perigee_deg":97.4642,"mean_anomaly_deg":262.6715,"bstar":0.00011696,"rev_number":1489,"period_min":106.58595922567,"perigee_km":1067.1557915146,"apogee_km":1069.8440274389,"semimajor_km":7446.6369094767,"source":"CELESTRAK","updated_at":"2026-09-20T09:00:24.863186Z"}}}